Miscellaneous Local Product
Issued by NWS Hastings, NE

Home | Current Version | Previous Version | Text Only | Print | Product List | Glossary Off
Versions: 1 2 3 4 5 6 7 8 9 10 11 12 13 14 15 16 17 18 19 20 21 22 23 24 25 26 27 28 29 30 31 32 33 34 35 36 37 38 39 40 41 42 43 44 45 46 47 48 49 50

000
AXUS43 KGID 262002
MISGRI

GID CWA HOURLY WEATHER ROUNDUP
NATIONAL WEATHER SERVICE HASTINGS NE
300 PM CDT TUE MAY 26 2015

NOTE: "FAIR" INDICATES FEW OR NO CLOUDS BELOW 12,000 FEET WITH NO
SIGNIFICANT WEATHER AND/OR OBSTRUCTIONS TO VISIBILITY.

...SOUTH CENTRAL NEBRASKA...

CITY           SKY/WX    TMP DP  RH WIND       PRES   REMARKS
GRAND ISLAND   PTSUNNY   67  52  58 NW10      29.92F
HASTINGS       CLOUDY    65  51  60 NW16G22   29.93S
KEARNEY        PTSUNNY   70  48  46 NW14G22   29.94S
ORD            CLOUDY    66  49  54 N16       29.92R
YORK           CLOUDY    64  57  77 NW15      29.90S
AURORA         CLOUDY    64  55  73 NW20      29.92R
LEXINGTON      PTSUNNY   66  52  60 N13G18    29.97S
HOLDREGE       PTSUNNY   66  49  54 NW15      29.96S
HEBRON         MOSUNNY   70  51  50 NW14G20   29.89F

...NEBRASKA PANHANDLE...

CITY           SKY/WX    TMP DP  RH WIND       PRES   REMARKS
CHADRON        PTSUNNY   68  49  50 S7        29.98F
ALLIANCE       SUNNY     65  48  54 VRB5      30.00F
SCOTTSBLUFF    MOSUNNY   67  53  61 SE10      29.99F
SIDNEY         CLOUDY    62  52  69 E3        30.03S

...WESTERN AND NORTH CENTRAL NEBRASKA...

CITY           SKY/WX    TMP DP  RH WIND       PRES   REMARKS
VALENTINE      MOSUNNY   71  47  42 NW8       29.96F
AINSWORTH      MOSUNNY   70  50  48 N9        29.96F
ONEILL         CLOUDY    63  55  76 NW14      29.93R
BROKEN BOW     CLOUDY    69  49  48 N12       29.96R
IMPERIAL       MOSUNNY   66  51  58 NE6       30.01S
NORTH PLATTE   PTSUNNY   69  47  45 N7        29.99S
MCCOOK         PTSUNNY   71  49  45 N13       29.97F

...EASTERN NEBRASKA...

CITY           SKY/WX    TMP DP  RH WIND       PRES   REMARKS
NORFOLK        CLOUDY    67  55  65 N10       29.87S
SO SIOUX CITY  CLOUDY    61  55  81 NW14      29.84R
TEKAMAH        CLOUDY    65  59  81 NW16      29.83R
COLUMBUS         N/A    N/A N/A N/A MISG        N/A
ALBION         PTSUNNY   66  53  61 N12G21    29.89F
OMAHA EPPLEY   CLOUDY    66  60  81 NW17      29.82R
OFFUTT AFB     PTSUNNY   67  62  82 NW15      29.82R
MILLARD        PTSUNNY   65  60  81 NW15      29.83R
LINCOLN        CLOUDY    69  58  67 NW18      29.87R
NEBRASKA CITY  LGT RAIN  66  65  96 W12       29.84R
BEATRICE       MOSUNNY   71  58  64 NW17G23   29.87R
FALLS CITY     CLOUDY    71  60  68 W17       29.83R

...NORTHERN KANSAS...

CITY           SKY/WX    TMP DP  RH WIND       PRES   REMARKS
GOODLAND       PTSUNNY   71  51  49 N12       30.00F
HILL CITY        N/A     75  55  49 NW13        N/A
NORTON         MOCLDY    73  48  40 NW17      29.95F
PHILLIPSBURG   MOSUNNY   73  54  49 NW15G24   29.95S
SMITH CENTER   MOSUNNY   70  54  56 NW17G24   29.94S
HAYS           MOSUNNY   75  54  46 W14       29.95S
RUSSELL        PTSUNNY   75  56  51 W13       29.93S
CONCORDIA      MOSUNNY   73  55  53 NW12      29.90S
SALINA         MOSUNNY   78  56  46 NW12      29.92S
TOPEKA         PTSUNNY   77  59  53 SW15G21   29.89R



USA.gov is the U.S. government's official web portal to all federal, state and local government web resources and services.